Location: Launay
(47.2429°N, 1.5727°E)
Time: 22:10:59
(UTC+00:00)

Cosmos 1766 - Pass Details

Date: 19 May 2025
Orbit: 443 x 457 km, 82.5° (Epoch: 18 June)

Event Time Altitude Azimuth Distance (km) Brightness Sun altitude
Rises 23:01:24 0° 348° (NNW) 2,461 8.2 -21.9°
Reaches altitude 10° 23:03:30 10° 345° (NNW) 1,582 6.8 -22.0°
Enters shadow 23:06:33 59° 301° (WNW) 523 3.3 -22.1°
